{"data":{"norad_id":67865,"intl_designator":"2026-034R","name":"STARLINK-36738","alt_names":[],"object_type":"PAYLOAD","status":"ACTIVE","operator":null,"country":"US","launch_date":"2026-02-20","launch_site_code":"AFETR","launch_vehicle":null,"mission":null,"orbit_class":"UNKNOWN","rcs_meters":null,"size_class":null,"mass_kg":null,"dimensions":null,"purposes":["comms"],"wikipedia_slug":null,"has_3d_model":false,"image_url":null,"decayed_at":null,"tle_current":{"epoch":"2026-09-19T19:50:11.776416Z","epoch_age_seconds":124668,"freshness":"FRESH","line1":"1 67865U 26034R   26262.82652519  .00020439  00000+0  61429-3 0  9995","line2":"2 67865  53.1591  20.7429 0001102  64.0808 296.0308 15.34405473 33776","mean_motion":15.34405473,"eccentricity":0.0001102,"inclination_deg":53.1591,"raan_deg":20.7429,"arg_perigee_deg":64.0808,"mean_anomaly_deg":296.0308,"bstar":0.00061429,"rev_number":3377,"period_min":93.847423340102,"perigee_km":461.93311454421,"apogee_km":463.44083214794,"semimajor_km":6840.8239733461,"source":"CELESTRAK","updated_at":"2026-09-20T09:00:43.691532Z"}}}